F5MAP-5 Weather Reports


time (UTC)temp
F
wind
direction
speed
knots
gust
knots
rain 1hr
in
rain 24hr
in
rain mn
in
humidity
%
barometer
mb
20260506033212 51 222 3.5 6.1 0.00 0.00 0.00 90 1007.0
20260506032212 51 198 4.3 7.0 0.00 0.00 0.00 90 1006.9
20260506031212 51 217 3.5 6.1 0.00 0.00 0.00 90 1006.9
20260506030212 52 175 3.5 7.8 0.00 0.00 0.00 90 1007.0
20260506025213 52 202 2.6 5.2 0.00 0.00 0.00 89 1006.9
20260506024213 52 181 2.6 5.2 0.00 0.00 0.00 89 1007.1
20260506023213 52 190 2.6 5.2 0.00 0.00 0.00 89 1007.1
20260506022212 52 178 1.7 4.3 0.00 0.00 0.00 89 1007.2
20260506021212 53 234 1.7 6.1 0.00 0.00 0.00 89 1007.3
20260506020212 53 204 2.6 6.1 0.00 0.00 0.00 89 1007.6
20260506015212 53 204 3.5 6.1 0.00 0.00 0.00 89 1007.7
20260506014212 53 217 3.5 7.0 0.00 0.00 0.00 89 1007.8
20260506013212 53 196 2.6 8.7 0.00 0.00 0.00 89 1007.9
20260506012212 53 213 3.5 7.0 0.00 0.00 0.00 89 1008.0
20260506011212 53 217 2.6 6.1 0.00 0.00 0.00 89 1008.1
20260506010213 54 236 3.5 6.1 0.00 0.00 0.00 89 1008.0
20260506005212 54 219 4.3 7.8 0.00 0.00 0.00 89 1007.9
20260506004211 54 218 3.5 7.0 0.00 0.00 0.00 89 1007.9
20260506003212 54 209 3.5 7.0 0.00 0.00 0.00 89 1008.0
20260506002212 54 192 3.5 7.8 0.00 0.00 0.00 89 1008.0
20260506001212 54 183 4.3 8.7 0.00 0.00 0.00 89 1008.2
20260506000212 54 187 3.5 7.0 0.00 0.00 0.00 90 1008.4
20260505235211 54 247 3.5 7.0 0.00 0.00 0.00 90 1008.4
20260505234211 54 210 3.5 8.7 0.00 0.00 0.00 90 1008.5
20260505233212 54 200 3.5 8.7 0.00 0.00 0.00 90 1008.8
20260505232212 54 215 3.5 8.7 0.00 0.00 0.00 90 1008.8
20260505231211 54 216 5.2 9.6 0.00 0.00 0.00 90 1008.9
20260505230211 54 220 5.2 11.3 0.00 0.00 0.00 90 1008.9
20260505225212 54 233 3.5 7.0 0.00 0.00 0.00 90 1008.8
20260505224212 54 196 2.6 6.1 0.00 0.00 0.00 90 1008.8
20260505223212 54 236 2.6 5.2 0.00 0.00 0.00 90 1008.8
20260505222211 54 194 2.6 4.3 0.00 0.00 0.00 90 1008.8
20260505221211 54 182 2.6 5.2 0.00 0.00 0.00 90 1008.8
20260505220211 54 211 1.7 4.3 0.00 0.00 0.00 90 1009.0
20260505215211 54 194 3.5 7.0 0.00 0.00 0.00 90 1009.1
20260505214211 54 230 3.5 7.0 0.00 0.00 0.00 90 1009.1
20260505213211 54 185 3.5 7.8 0.00 0.00 0.00 89 1009.1
20260505212211 54 198 3.5 6.1 0.00 0.00 0.00 89 1009.0
20260505211211 55 194 4.3 8.7 0.00 0.00 0.00 89 1008.9
20260505210211 55 161 4.3 8.7 0.00 0.00 0.00 88 1008.8
20260505205212 55 226 4.3 9.6 0.00 0.00 0.00 88 1009.0
20260505204213 56 174 1.7 7.8 0.00 0.00 0.00 87 1008.9
20260505203212 56 161 2.6 5.2 0.00 0.00 0.00 87 1009.0
20260505202212 56 188 1.7 3.5 0.00 0.00 0.00 86 1009.0
20260505201212 57 181 0.9 2.6 0.00 0.00 0.00 86 1008.7
20260505200212 57 209 1.7 6.1 0.00 0.00 0.00 86 1008.6
20260505195212 57 219 3.5 7.0 0.00 0.00 0.00 85 1008.7
20260505194211 57 197 4.3 8.7 0.00 0.00 0.00 85 1008.5
20260505193213 58 240 5.2 8.7 0.00 0.00 0.00 85 1008.6
20260505192212 58 219 4.3 7.0 0.00 0.00 0.00 84 1008.5
20260505191211 58 223 5.2 8.7 0.00 0.00 0.00 84 1008.4
20260505190212 58 223 5.2 9.6 0.00 0.00 0.00 84 1008.2
20260505185211 59 229 7.0 10.4 0.00 0.00 0.00 84 1008.2
20260505184211 60 222 5.2 10.4 0.00 0.00 0.00 85 1008.2
20260505183211 60 203 4.3 8.7 0.00 0.00 0.00 85 1008.1
20260505182211 60 220 5.2 8.7 0.00 0.00 0.00 84 1007.9
20260505181211 60 186 4.3 11.3 0.00 0.00 0.00 82 1007.8
20260505180211 61 212 4.3 10.4 0.00 0.00 0.00 83 1007.9
20260505175211 61 195 4.3 10.4 0.00 0.00 0.00 83 1007.8
20260505174211 61 268 7.0 10.4 0.00 0.00 0.00 84 1007.8
20260505173212 61 215 5.2 10.4 0.00 0.00 0.00 84 1007.7
20260505172211 61 194 3.5 8.7 0.00 0.00 0.00 84 1007.7
20260505171211 61 234 5.2 10.4 0.00 0.00 0.00 84 1007.6
20260505170211 61 200 5.2 10.4 0.00 0.00 0.00 84 1007.5
20260505165211 62 268 5.2 9.6 0.00 0.00 0.00 85 1007.6
20260505164211 62 219 5.2 11.3 0.00 0.00 0.00 85 1007.8
20260505163211 62 204 4.3 7.8 0.00 0.00 0.00 85 1007.7
20260505162210 62 183 5.2 10.4 0.00 0.00 0.00 85 1007.7
20260505161210 61 225 5.2 11.3 0.00 0.00 0.00 86 1007.6
20260505160210 62 216 4.3 8.7 0.00 0.00 0.00 86 1007.6
20260505153211 62 184 3.5 7.8 0.00 0.00 0.00 88 1007.6
20260505152211 62 174 3.5 8.7 0.00 0.00 0.00 86 1007.6
20260505151211 62 223 3.5 9.6 0.00 0.00 0.00 85 1007.8
20260505150210 62 213 2.6 5.2 0.00 0.00 0.00 83 1007.7
20260505140210 67 188 0.9 3.5 0.00 0.00 0.00 65 1007.5
20260505130210 69 272 0.9 5.2 0.00 0.00 0.00 66 1007.9
20260505124210 68 273 0.0 2.6 0.00 0.00 0.00 67 1008.0
20260505123210 68 205 3.5 6.1 0.00 0.00 0.00 69 1008.0
20260505122211 67 13 0.9 4.3 0.00 0.00 0.00 73 1008.1
20260505121319 65 190 1.7 5.2 0.00 0.00 0.00 79 1008.2
20260505121210 65 190 1.7 5.2 0.00 0.00 0.00 79 1008.2
20260505120210 63 75 1.7 2.6 0.00 0.00 0.00 83 1008.3
20260505115210 62 244 2.6 3.5 0.00 0.00 0.00 84 1008.4
20260505114210 62 284 1.7 3.5 0.00 0.00 0.00 85 1008.6
20260505113210 61 150 1.7 4.3 0.00 0.00 0.00 86 1008.7
20260505112210 61 179 1.7 3.5 0.00 0.00 0.00 87 1008.8
20260505111210 61 229 0.9 3.5 0.00 0.00 0.00 88 1008.8
20260505110210 61 266 0.9 3.5 0.00 0.00 0.00 89 1008.9
20260505102210 60 193 0.9 2.6 0.00 0.00 0.00 92 1009.0
20260505101210 60 270 2.6 3.5 0.00 0.00 0.00 93 1008.9
20260505100210 59 296 0.0 2.6 0.00 0.00 0.00 93 1008.9
20260505095210 59 180 1.7 4.3 0.00 0.00 0.00 93 1009.0
20260505094210 59 210 0.9 2.6 0.00 0.00 0.00 93 1009.0
20260505093211 59 240 0.9 3.5 0.00 0.00 0.00 93 1009.0
20260505092216 59 179 0.0 0.0 0.00 0.00 0.00 94 1009.0
20260505091215 59 232 0.0 2.6 0.00 0.00 0.00 94 1009.1
20260505090216 58 218 0.0 2.6 0.00 0.00 0.00 94 1009.1
20260505085216 58 222 0.9 3.5 0.00 0.00 0.00 94 1009.2
20260505084216 58 156 2.6 5.2 0.00 0.00 0.00 94 1009.2
20260505083215 58 269 2.6 6.1 0.00 0.00 0.00 94 1009.3
20260505082215 58 197 4.3 6.1 0.00 0.00 0.00 94 1009.4
20260505081215 58 233 1.7 5.2 0.00 0.00 0.00 94 1009.4
20260505080215 58 235 2.6 5.2 0.00 0.00 0.00 94 1009.5
20260505075215 57 258 1.7 4.3 0.00 0.00 0.00 94 1009.5
20260505074215 57 180 2.6 4.3 0.00 0.00 0.00 94 1009.5
20260505073215 57 219 2.6 5.2 0.00 0.00 0.00 94 1009.7
20260505072215 56 217 1.7 4.3 0.00 0.00 0.00 94 1009.7
20260505071215 56 209 2.6 5.2 0.00 0.00 0.00 94 1009.8
20260505070215 55 228 1.7 6.1 0.00 0.00 0.00 94 1009.8
20260505065215 55 247 1.7 5.2 0.00 0.00 0.00 94 1009.9
20260505064215 55 224 2.6 8.7 0.00 0.00 0.00 93 1009.9
20260505063215 55 200 2.6 5.2 0.00 0.00 0.00 93 1009.9
20260505062215 55 182 2.6 5.2 0.00 0.00 0.00 94 1009.9
20260505061215 54 230 1.7 4.3 0.00 0.00 0.00 93 1010.1
20260505060215 54 214 1.7 3.5 0.00 0.00 0.00 93 1010.0
20260505055215 54 202 1.7 3.5 0.00 0.00 0.00 93 1010.1
20260505054215 53 195 0.9 3.5 0.00 0.00 0.00 93 1010.1
20260505053215 53 185 0.9 3.5 0.00 0.00 0.00 93 1010.2
20260505052215 53 193 1.7 2.6 0.00 0.00 0.00 93 1010.1
20260505051215 53 253 0.0 1.7 0.00 0.00 0.00 93 1010.0
20260505050214 53 271 0.0 1.7 0.00 0.00 0.00 93 1010.1
20260505041215 53 279 0.0 0.0 0.00 0.00 0.00 93 1010.0
20260505040215 53 286 0.0 2.6 0.00 0.00 0.00 92 1010.1
20260505035215 53 266 0.0 2.6 0.00 0.00 0.00 92 1010.3
20260505034214 53 265 1.7 5.2 0.00 0.00 0.00 93 1010.2